Wetbulb
62.60 60.80 60.38 60.08 59.56 59.08 57.31 55.64 55.88 56.68 54.96 55.69 57.50 58.53 57.96 57.55 57.61 58.06 57.18 60.74 61.38 61.94 61.58 61.39 60.80 60.28 59.16 58.57 58.40 57.50 57.02 56.65 56.13 55.45 55.22 54.82 54.48 54.05 53.53 52.96 52.74 52.68 52.85
61.88 59.21 58.85 57.96 58.36 58.23 56.47 55.31 55.59 54.47 55.05 55.99 57.16 59.01 57.99 57.66 57.39 57.11 57.32 58.94 60.50 61.48 61.56 61.04 60.85 60.28 59.65 58.58 57.99 57.84 57.04 56.67 55.82 55.32 54.72 54.30 53.98 53.33 52.72 52.39 51.94 51.86 51.70
61.34 58.95 58.28 57.83 58.30 57.58 56.11 55.62 56.02 56.32 55.88 57.30 56.83 58.20 58.59 57.68 57.21 57.28 57.33 57.51 58.97 59.60 60.82 61.28 60.92 60.28 59.88 59.22 58.15 57.78 57.89 56.88 56.28 55.38 54.63 53.93 53.69 53.04 52.47 51.70 51.23 51.09 50.94
62.54 60.87 58.49 58.48 58.98 58.15 57.36 56.96 57.24 56.44 55.56 55.49 54.91 56.53 58.50 57.61 57.23 57.06 57.49 57.50 57.54 58.32 59.42 60.72 61.28 61.30 60.35 59.93 59.35 58.68 58.06 57.57 57.36 56.28 55.19 54.13 53.61 53.09 52.33 51.74 50.91 50.56 50.52
62.69 61.76 59.99 59.60 59.75 58.66 58.37 57.93 58.01 56.29 55.32 54.79 55.18 54.83 55.35 57.59 57.05 57.66 56.98 57.11 57.23 57.81 57.79 59.87 60.36 60.42 61.12 61.12 60.51 60.28 59.63 58.58 57.82 57.92 56.85 55.47 54.46 53.79 53.14 52.28 51.68 50.93 50.62
61.20 61.35 61.09 60.43 60.74 59.22 58.43 58.52 57.86 55.60 55.39 55.91 57.27 55.41 54.39 55.50 57.09 56.61 56.88 57.72 57.45 57.85 57.96 57.95 58.61 58.58 59.79 61.26 61.55 61.12 61.00 60.49 59.50 58.60 58.20 57.58 56.29 55.04 54.05 53.33 52.67 51.91 51.45
60.07 60.39 59.95 59.99 58.90 59.74 57.90 57.84 56.88 55.68 54.09 54.91 52.51 51.77 52.59 54.15 54.25 54.86 56.65 56.82 56.88 57.39 57.87 58.20 58.25 58.22 58.54 60.21 61.50 61.84 62.44 61.98 60.88 59.71 58.99 58.13 57.78 56.81 55.58 54.68 54.04 53.28 52.57
59.12 59.00 59.64 59.22 57.38 59.15 57.90 56.53 54.93 53.11 54.20 54.15 51.44 50.76 48.14 49.80 52.18 52.71 52.57 54.33 55.30 56.48 57.62 57.85 57.99 58.45 58.30 58.39 58.92 61.52 62.37 62.53 62.15 61.23 60.10 59.90 59.06 58.83 57.39 56.31 55.43 54.91 54.48
58.76 58.42 59.17 58.93 58.14 58.34 57.34 55.85 54.52 53.28 52.44 52.77 53.57 50.96 47.33 46.31 48.01 49.36 50.39 50.77 51.89 51.70 53.47 55.71 58.00 58.24 58.26 58.03 58.52 58.86 58.85 59.24 62.07 62.80 62.22 60.98 60.20 59.51 59.11 57.98 56.99 56.38 55.92
57.45 57.21 58.22 57.95 57.77 58.20 56.31 55.58 56.60 54.61 54.56 51.63 52.36 54.31 53.93 53.33 48.57 47.00 49.01 49.97 50.24 51.65 51.09 51.70 53.98 57.28 57.68 57.07 57.59 57.16 55.60 55.78 57.93 61.11 62.03 62.22 61.60 60.85 59.86 59.39 59.11 57.90 57.09
56.79 57.06 57.22 57.38 56.72 57.02 56.81 57.18 56.82 56.44 56.32 54.48 52.25 52.99 52.41 53.07 53.02 49.94 46.66 48.65 49.34 51.08 51.84 52.74 53.26 53.57 54.58 54.37 54.94 56.81 54.24 54.14 55.19 58.31 60.39 61.26 61.81 61.43 60.92 60.20 59.64 59.26 58.66
56.55 57.54 56.51 58.31 58.24 57.05 57.47 57.24 57.41 57.18 56.94 56.78 55.20 54.32 53.37 52.01 51.47 50.90 48.71 48.04 48.13 49.52 51.04 51.72 51.73 51.86 52.18 52.32 54.12 53.43 52.34 52.29 53.01 55.78 57.94 59.24 60.29 61.11 60.94 60.68 60.44 59.24 58.94
55.88 56.10 57.62 57.01 57.16 57.57 57.62 57.48 57.43 56.68 56.78 56.63 56.66 56.44 56.31 56.33 55.20 53.54 52.50 50.23 49.97 49.94 50.35 51.24 51.88 51.61 51.97 50.52 51.65 52.18 52.56 49.77 50.97 53.36 55.17 56.72 57.74 58.79 59.58 59.69 59.41 59.06 58.52
56.18 56.52 57.00 58.35 58.04 56.79 57.07 57.68 57.48 56.95 57.19 57.23 56.64 56.78 57.13 56.78 57.07 56.00 53.38 52.15 48.22 49.67 51.09 51.88 53.85 53.20 53.22 52.81 52.87 51.47 52.65 49.81 48.99 50.21 52.36 53.91 55.12 55.90 56.63 57.01 57.21 57.10 56.91
56.63 56.00 56.16 57.86 58.18 57.71 56.64 56.84 56.53 56.65 57.03 57.00 56.86 56.91 56.49 56.95 57.17 57.09 56.09 55.42 52.96 48.20 49.57 51.49 52.66 54.64 55.44 55.18 53.73 53.84 53.31 52.15 48.46 47.93 49.22 50.95 52.77 54.09 53.97 53.48 53.11 53.08 53.07
56.79 56.39 55.85 57.19 57.79 58.13 57.94 57.35 56.77 56.59 56.00 56.13 56.57 56.23 55.73 56.30 56.55 56.71 56.60 56.01 55.22 53.24 49.79 52.45 52.28 54.12 54.54 55.18 54.19 53.50 53.76 51.80 48.55 46.84 46.57 48.00 49.46 50.17 49.98 49.86 49.85 49.91 49.85
56.17 56.44 56.19 56.93 57.72 57.45 58.02 57.79 57.36 56.73 55.87 55.37 55.49 55.18 55.56 56.58 55.88 56.24 56.86 56.33 55.35 55.04 51.65 52.97 53.91 53.63 52.86 53.36 54.34 54.11 54.58 53.55 52.46 46.46 45.97 46.14 47.15 46.09 46.11 46.27 46.36 46.83 47.34
57.19 56.40 56.19 56.00 56.75 57.19 56.94 56.77 56.53 57.16 55.87 54.78 54.55 54.14 54.68 55.66 55.14 55.58 55.77 55.49 55.30 55.07 53.72 51.69 53.88 54.10 51.48 53.63 54.24 53.30 51.09 51.73 51.84 46.88 45.23 44.54 44.99 43.75 43.46 43.43 43.52 43.39 43.38
56.94 56.96 56.47 55.54 55.66 56.86 56.95 57.00 56.90 56.45 56.15 55.66 55.44 54.74 54.56 54.45 53.98 55.02 55.27 55.02 55.18 55.44 55.58 54.18 53.73 55.22 54.50 46.45 48.42 45.91 50.45 49.92 49.35 48.22 43.78 43.78 43.61 43.15 42.65 42.13 41.70 41.28 40.22
57.34 56.22 56.22 56.26 56.44 56.54 56.99 57.28 57.15 56.88 56.65 56.43 56.05 55.73 55.46 54.89 54.38 54.75 55.15 55.25 55.33 55.12 55.12 55.15 54.97 54.83 52.35 47.66 49.74 49.36 45.97 46.73 47.43 48.77 46.05 44.24 43.55 42.98 42.27 41.24 40.62 39.19 37.65
57.76 57.50 56.69 56.11 56.37 56.63 56.99 57.07 57.13 56.65 56.33 56.02 56.20 55.82 55.72 54.61 50.85 53.00 55.68 55.68 55.53 54.91 54.79 54.71 54.26 53.74 50.68 40.06 44.19 48.32 46.74 48.25 44.58 44.90 42.89 42.57 41.55 41.33 40.86 39.45 38.05 37.90 37.84
58.03 58.19 57.68 57.33 56.63 56.78 50.58 46.49 52.51 56.12 55.94 55.29 54.52 54.86 55.20 49.55 49.40 45.30 45.23 46.76 52.97 54.86 54.48 54.40 53.83 52.22 51.87 48.84 49.01 47.14 42.75 36.57 36.04 40.17 37.85 37.13 38.65 37.06 38.15 37.76 37.20 38.10 38.66
58.28 57.72 57.70 58.18 57.65 57.36 47.72 45.48 44.40 55.73 55.91 55.23 55.15 54.90 55.22 55.55 49.98 54.82 47.31 42.09 37.85 37.89 39.51 48.78 52.47 52.48 49.56 44.47 40.38 35.66 34.58 34.51 32.78 35.04 35.14 32.78 36.28 34.53 37.58 38.42 38.02 38.28 38.30
57.83 57.93 58.31 58.51 58.30 58.38 46.89 45.95 43.53 51.51 55.62 56.73 56.63 56.63 56.66 56.14 53.54 52.63 40.12 34.09 33.04 33.11 34.50 35.90 36.49 35.25 35.24 35.93 36.78 36.14 34.33 32.43 32.51 33.22 34.14 29.65 32.98 31.89 35.46 36.18 37.18 37.43 36.31
57.47 57.44 57.66 57.44 57.75 57.10 38.12 39.58 43.19 50.57 54.02 46.94 39.14 39.14 42.04 42.89 39.69 40.91 36.05 31.50 29.88 29.92 33.10 33.62 33.07 32.92 33.19 34.01 34.89 34.50 31.55 31.07 29.03 29.96 33.34 30.66 30.28 30.82 30.73 30.99 33.39 36.06 34.61
56.98 54.87 41.87 38.98 38.73 39.10 36.24 38.21 42.84 46.45 37.82 33.44 33.34 34.24 34.65 35.22 35.55 35.61 33.61 31.35 28.03 27.70 28.97 28.92 28.15 28.65 29.61 30.41 31.38 31.31 31.73 29.08 28.43 27.17 28.13 28.61 26.64 27.32 25.77 28.79 29.49 28.89 29.24
MSLP
1015.24 1015.61 1016.47 1017.20 1017.63 1017.92 1018.67 1019.36 1019.66 1019.49 1019.87 1020.26 1020.07 1021.15 1021.85 1022.23 1022.49 1023.12 1023.70 1024.30 1024.69 1024.91 1025.23 1025.78 1025.98 1026.25 1026.70 1026.87 1027.24 1027.45 1027.59 1027.89 1028.24 1028.39 1028.57 1028.77 1028.85 1029.01 1029.15 1029.06 1029.30 1029.44 1029.30
1014.77 1015.47 1016.38 1017.01 1017.77 1017.86 1018.46 1019.14 1019.44 1019.77 1020.04 1020.28 1020.32 1020.92 1021.62 1022.33 1022.47 1023.17 1023.74 1024.36 1024.70 1024.94 1025.24 1025.71 1025.99 1026.31 1026.71 1027.09 1027.42 1027.51 1027.63 1027.96 1028.38 1028.52 1028.66 1028.90 1029.00 1029.14 1029.45 1029.42 1029.49 1029.56 1029.61
1014.68 1015.50 1016.11 1016.87 1017.40 1017.93 1018.37 1019.01 1019.52 1019.77 1020.17 1020.32 1020.46 1020.86 1021.63 1022.34 1022.64 1023.13 1023.80 1024.48 1024.68 1024.92 1025.14 1025.65 1026.02 1026.40 1026.70 1027.04 1027.27 1027.33 1027.55 1027.97 1028.25 1028.53 1028.72 1029.11 1029.43 1029.35 1029.49 1029.59 1029.71 1029.70 1029.68
1014.33 1015.22 1016.04 1016.54 1017.01 1017.68 1018.29 1018.76 1019.35 1019.85 1020.24 1020.40 1020.58 1020.95 1021.50 1022.23 1022.61 1023.04 1023.59 1024.32 1024.80 1024.84 1025.17 1025.41 1025.70 1026.19 1026.55 1026.87 1027.15 1027.38 1027.52 1027.83 1028.14 1028.39 1028.68 1028.94 1029.36 1029.51 1029.55 1029.63 1029.79 1029.90 1029.88
1013.97 1014.84 1015.62 1016.14 1016.74 1017.36 1018.08 1018.59 1019.00 1019.21 1020.12 1020.45 1020.73 1020.91 1021.42 1021.88 1022.60 1022.98 1023.39 1023.82 1024.33 1024.60 1025.01 1025.35 1025.60 1025.76 1026.21 1026.53 1026.71 1026.97 1027.14 1027.41 1027.79 1027.96 1028.31 1028.67 1029.01 1029.30 1029.24 1029.31 1029.49 1029.55 1029.59
1013.93 1014.50 1015.22 1015.83 1016.56 1017.32 1017.80 1018.33 1018.73 1019.10 1019.67 1020.25 1020.58 1021.06 1021.28 1021.84 1022.32 1022.67 1023.07 1023.51 1023.89 1024.24 1024.64 1025.03 1025.42 1025.50 1025.77 1026.10 1026.19 1026.29 1026.35 1026.65 1027.09 1027.48 1027.75 1027.98 1028.51 1028.76 1028.95 1029.13 1029.18 1029.31 1029.38
1013.87 1014.49 1014.99 1015.75 1016.48 1017.10 1017.60 1018.00 1018.35 1018.78 1019.57 1019.85 1020.76 1021.38 1021.68 1021.67 1022.01 1022.33 1022.61 1023.18 1023.62 1023.75 1024.15 1024.45 1024.89 1025.08 1025.33 1025.46 1025.65 1025.72 1025.70 1025.80 1026.13 1026.49 1026.92 1027.27 1027.70 1028.14 1028.24 1028.41 1028.61 1028.72 1028.89
1014.02 1014.40 1014.69 1015.63 1016.44 1016.88 1017.50 1018.03 1017.93 1018.74 1019.12 1019.48 1020.35 1021.37 1021.92 1022.42 1022.17 1022.13 1022.39 1022.85 1023.02 1023.19 1023.54 1023.92 1024.20 1024.44 1024.66 1024.89 1024.95 1025.01 1024.98 1024.99 1025.13 1025.48 1025.88 1026.21 1026.46 1026.97 1027.50 1027.86 1027.94 1027.98 1028.18
1014.11 1014.35 1014.54 1015.47 1016.13 1016.72 1017.68 1017.99 1017.44 1018.03 1018.80 1019.19 1019.39 1020.44 1021.45 1021.92 1022.31 1022.34 1022.27 1022.34 1022.56 1022.82 1022.98 1023.19 1023.36 1023.64 1023.84 1023.94 1024.07 1024.24 1024.19 1024.33 1024.29 1024.36 1024.60 1024.96 1025.45 1025.83 1026.19 1026.63 1026.90 1026.98 1027.35
1014.28 1014.33 1014.38 1014.83 1015.82 1016.21 1016.78 1017.09 1017.25 1017.68 1018.21 1018.81 1019.56 1020.05 1020.36 1020.97 1021.94 1022.57 1022.35 1022.26 1022.14 1022.35 1022.49 1022.55 1022.64 1022.69 1022.88 1023.16 1023.33 1023.36 1023.33 1023.52 1023.55 1023.61 1023.82 1024.00 1024.33 1024.71 1025.14 1025.35 1025.71 1026.01 1026.29
1014.11 1014.14 1014.32 1014.63 1015.30 1015.73 1016.25 1016.65 1017.16 1017.51 1017.79 1018.77 1019.19 1019.84 1020.36 1020.73 1021.07 1021.90 1022.28 1022.10 1022.12 1021.86 1021.88 1021.89 1021.82 1022.04 1022.05 1022.21 1022.43 1022.35 1022.36 1022.50 1022.78 1023.01 1023.23 1023.32 1023.49 1023.70 1023.94 1024.38 1024.72 1024.96 1025.20
1014.03 1014.11 1014.17 1014.45 1014.98 1015.66 1016.03 1016.40 1016.72 1017.24 1017.80 1018.19 1018.62 1019.13 1019.58 1020.22 1020.64 1021.20 1021.67 1021.62 1021.66 1021.59 1021.39 1021.43 1021.52 1021.40 1021.33 1021.53 1021.56 1021.61 1021.73 1021.79 1022.02 1022.40 1022.49 1022.47 1022.46 1022.44 1022.65 1023.17 1023.58 1023.95 1024.31
1013.41 1013.69 1014.03 1014.43 1014.91 1015.34 1015.76 1016.16 1016.52 1016.88 1017.32 1017.82 1018.87 1019.33 1019.35 1019.44 1019.68 1020.17 1020.50 1020.78 1021.16 1021.17 1021.09 1020.76 1020.79 1020.74 1020.75 1021.09 1021.06 1020.90 1021.01 1021.17 1021.25 1021.24 1021.26 1021.42 1021.64 1021.73 1021.68 1021.92 1022.29 1022.66 1023.02
1012.92 1013.20 1013.60 1014.01 1014.48 1014.88 1015.37 1015.84 1016.20 1016.56 1017.05 1017.32 1017.95 1019.26 1019.40 1019.26 1019.34 1019.26 1019.75 1020.02 1020.69 1020.74 1020.75 1020.16 1019.53 1019.75 1019.92 1020.11 1020.00 1019.90 1020.21 1020.13 1020.16 1020.17 1020.17 1020.16 1020.38 1020.59 1020.70 1021.08 1021.31 1021.67 1022.03
1012.50 1012.89 1013.36 1013.74 1014.11 1014.53 1015.04 1015.57 1015.93 1016.29 1016.62 1017.03 1017.07 1018.17 1018.76 1019.02 1018.89 1018.74 1018.67 1018.84 1019.30 1019.87 1019.58 1019.07 1019.35 1018.66 1018.74 1019.05 1018.94 1018.99 1019.00 1018.85 1018.86 1019.12 1019.24 1019.21 1019.28 1019.53 1019.46 1020.06 1020.50 1020.93 1021.40
1011.74 1012.21 1012.79 1013.26 1013.69 1014.16 1014.61 1014.94 1015.28 1015.70 1016.08 1016.33 1016.26 1016.98 1017.48 1017.63 1017.74 1017.81 1017.76 1017.94 1018.15 1018.29 1018.05 1017.84 1017.86 1017.61 1017.58 1017.58 1017.52 1017.76 1017.70 1017.63 1017.65 1017.36 1017.62 1018.11 1018.39 1018.72 1018.87 1019.11 1019.78 1020.46 1020.86
1011.04 1011.35 1011.70 1012.29 1012.76 1013.19 1013.59 1013.90 1014.13 1014.49 1014.93 1015.15 1015.39 1015.76 1015.99 1016.12 1016.29 1016.46 1016.73 1016.76 1016.98 1017.13 1016.84 1016.28 1016.48 1016.46 1016.62 1016.62 1016.50 1016.51 1016.42 1016.46 1016.47 1016.83 1016.67 1017.06 1017.82 1018.15 1018.70 1019.37 1019.85 1020.42 1021.06
1010.22 1010.60 1010.98 1011.24 1011.51 1011.88 1012.24 1012.45 1012.84 1013.20 1013.75 1014.10 1014.24 1014.73 1014.71 1015.11 1015.42 1015.51 1015.73 1015.77 1015.83 1015.74 1015.90 1015.60 1015.51 1015.64 1015.75 1015.52 1015.42 1015.75 1015.93 1015.89 1015.87 1015.99 1016.21 1016.16 1016.82 1017.43 1017.97 1018.78 1019.62 1020.34 1020.79
1009.31 1009.75 1010.09 1010.22 1010.50 1010.77 1011.07 1011.23 1011.55 1012.00 1012.22 1012.38 1012.86 1013.41 1013.27 1014.02 1014.20 1014.26 1014.47 1014.58 1014.62 1014.60 1014.68 1014.54 1014.12 1014.23 1014.49 1014.91 1015.03 1015.08 1014.98 1015.11 1015.15 1015.07 1015.47 1015.71 1016.24 1016.87 1017.39 1017.93 1018.59 1019.70 1020.71
1008.39 1008.63 1008.80 1009.18 1009.49 1009.75 1009.96 1010.26 1010.62 1010.90 1011.12 1011.40 1011.77 1011.97 1012.12 1012.50 1012.57 1012.79 1013.03 1013.12 1013.21 1013.39 1013.44 1013.40 1013.14 1013.16 1013.66 1014.00 1014.31 1014.58 1014.90 1014.82 1014.65 1014.75 1015.06 1015.26 1015.68 1016.63 1017.34 1018.04 1018.61 1018.87 1019.80
1007.21 1007.62 1008.09 1008.33 1008.55 1008.64 1008.60 1008.92 1009.18 1009.54 1009.93 1010.23 1010.40 1010.56 1010.67 1010.75 1010.92 1011.13 1011.57 1011.72 1012.01 1012.27 1012.39 1012.32 1012.16 1012.20 1012.65 1013.59 1013.42 1013.34 1013.57 1013.85 1014.45 1014.88 1015.19 1015.52 1016.05 1016.47 1017.20 1018.06 1018.81 1019.01 1019.44
1006.20 1006.67 1006.80 1007.19 1007.52 1007.47 1007.41 1007.81 1008.41 1008.84 1009.07 1009.34 1009.21 1009.28 1009.56 1009.78 1009.84 1010.04 1010.25 1010.38 1010.52 1010.98 1011.11 1011.12 1010.99 1011.01 1011.06 1011.39 1011.74 1012.26 1013.06 1013.89 1014.86 1014.95 1015.39 1016.06 1016.21 1017.10 1017.08 1017.58 1018.44 1018.98 1019.24
1005.10 1005.25 1005.50 1005.81 1006.03 1006.38 1006.42 1007.00 1007.53 1007.78 1007.86 1007.85 1007.91 1008.23 1008.42 1008.32 1008.51 1008.85 1009.12 1009.84 1010.75 1010.79 1010.67 1010.58 1010.19 1010.29 1010.43 1010.56 1011.14 1012.22 1012.77 1013.59 1014.35 1015.27 1015.43 1016.40 1016.59 1016.81 1017.26 1017.80 1018.04 1018.37 1018.37
1003.57 1003.88 1004.23 1004.62 1004.95 1004.78 1005.22 1005.64 1005.99 1006.54 1006.45 1006.41 1006.67 1006.77 1006.79 1007.05 1007.46 1007.90 1009.08 1010.15 1010.78 1011.08 1010.97 1011.02 1010.76 1011.36 1011.10 1011.28 1011.18 1012.00 1012.86 1014.08 1015.19 1015.52 1015.97 1016.44 1016.82 1017.34 1017.32 1017.69 1017.90 1017.78 1018.21
1002.38 1002.90 1003.52 1004.01 1004.15 1004.45 1005.40 1005.45 1005.50 1005.70 1006.00 1006.63 1007.32 1007.56 1007.48 1007.43 1007.50 1007.79 1008.92 1010.21 1011.20 1012.04 1012.13 1011.88 1011.95 1011.90 1011.93 1012.00 1011.69 1012.50 1013.65 1014.42 1015.53 1015.88 1016.38 1017.02 1016.82 1017.20 1017.08 1017.09 1017.35 1017.48 1017.47
1001.85 1002.60 1003.96 1005.00 1005.28 1005.48 1005.79 1005.54 1005.29 1005.45 1006.32 1007.38 1008.22 1008.40 1008.22 1008.27 1008.47 1008.31 1008.37 1009.61 1010.94 1012.01 1012.25 1012.25 1012.53 1012.60 1012.77 1012.63 1013.95 1013.39 1014.69 1014.78 1015.43 1016.42 1016.90 1017.13 1017.00 1017.15 1017.45 1017.12 1017.09 1017.38 1017.53
Wind_Speed
11 10 9 8 7 9 7 5 5 4 5 3 4 10 11 10 12 7 5 13 14 16 17 17 16 16 15 15 15 14 14 13 12 11 11 11 11 11 11 11 10 10 10
11 10 10 8 7 9 8 6 5 5 4 4 4 9 12 10 12 10 6 8 12 14 15 16 16 16 15 14 13 14 13 12 11 10 10 10 10 10 9 9 9 9 8
12 13 10 9 8 6 11 5 5 5 4 5 5 9 11 11 11 11 8 5 8 11 14 15 15 15 15 15 14 14 14 12 11 10 10 9 9 9 9 8 7 7 7
14 11 10 9 9 7 8 6 5 7 5 5 3 6 8 9 11 12 10 7 5 6 8 13 15 16 16 16 15 14 14 13 13 12 10 10 10 10 9 8 7 7 7
13 10 10 8 10 8 5 7 4 8 7 4 5 4 5 9 10 9 11 11 10 8 6 11 13 14 16 17 17 17 16 15 15 14 14 13 13 13 12 12 11 11 10
9 9 9 8 6 8 5 6 9 4 7 7 7 5 4 6 8 9 10 9 10 11 10 9 8 9 15 18 19 20 19 18 18 17 17 17 17 16 15 15 14 13 12
6 12 8 6 5 8 4 9 6 7 3 5 5 2 1 4 7 6 8 9 10 11 11 10 8 7 9 18 20 22 22 21 22 21 20 19 20 20 19 19 18 16 15
6 7 9 8 5 7 3 4 6 3 3 5 5 3 3 2 2 3 4 7 11 8 11 11 11 11 10 9 14 24 25 24 24 24 24 23 23 22 22 21 20 20 18
10 10 13 12 6 10 10 9 5 7 4 2 8 6 3 4 2 2 6 5 7 5 7 9 12 12 12 11 14 18 24 23 24 24 26 25 25 25 25 25 24 23 22
7 6 9 14 10 6 7 5 5 4 5 4 4 2 3 5 4 1 2 4 5 7 7 6 9 12 13 11 15 17 19 23 25 25 25 25 26 27 26 26 26 25 25
6 6 6 7 6 5 6 7 6 6 4 4 4 4 2 2 2 3 3 4 1 4 6 8 9 9 11 9 9 14 20 23 25 27 26 25 25 26 27 27 27 25 25
4 6 7 7 7 6 6 5 6 7 6 4 4 4 4 4 4 3 2 3 5 5 5 6 7 7 7 6 9 13 16 20 21 24 27 29 27 26 24 26 26 27 26
8 7 7 7 6 6 6 6 7 6 6 4 4 3 2 3 3 3 3 4 4 5 4 4 6 7 7 5 8 13 13 15 20 25 28 28 28 26 24 24 23 23 23
8 8 5 6 7 7 6 5 4 5 6 6 5 5 5 6 5 5 5 4 2 4 4 7 5 10 9 8 11 15 12 16 20 23 25 27 27 25 22 21 21 21 20
9 9 8 8 8 8 8 7 5 7 8 10 11 9 9 9 7 8 5 7 7 6 8 5 6 8 8 8 13 12 13 17 18 20 24 24 24 24 23 21 19 18 15
14 13 12 11 11 11 11 10 9 9 10 9 10 14 15 13 13 9 9 8 8 10 10 7 8 8 9 10 12 13 15 19 20 22 21 20 19 21 19 18 16 14 15
15 16 16 15 15 15 15 14 14 13 14 14 14 15 16 16 11 10 10 10 10 10 13 12 8 8 9 12 11 11 13 12 11 19 19 19 20 14 9 6 8 9 10
15 17 16 16 18 17 17 17 18 16 17 17 17 16 17 11 15 14 11 15 13 12 12 17 13 10 10 11 13 10 9 8 10 13 19 19 18 14 14 13 9 7 8
17 17 17 19 18 18 18 18 19 19 19 18 18 18 20 17 16 13 14 13 12 12 12 12 15 11 9 4 6 4 9 11 7 11 17 19 18 18 17 15 13 9 6
17 18 19 19 19 19 20 19 19 20 20 20 19 19 19 19 20 19 16 16 14 13 13 13 14 14 9 4 6 8 7 8 9 6 9 9 13 13 13 12 10 8 6
17 17 17 18 19 20 16 21 21 20 20 20 20 19 19 20 20 20 13 16 15 14 14 15 14 13 9 4 7 8 11 8 3 2 1 3 4 5 6 7 2 5 13
19 18 20 19 19 16 20 19 18 17 18 19 20 19 18 17 19 20 21 21 19 17 19 15 14 15 18 13 12 10 5 4 3 1 3 2 4 3 3 3 8 14 14
17 20 20 18 19 19 19 18 21 19 18 20 19 17 16 14 15 17 19 10 9 7 4 9 15 14 11 3 5 3 3 3 3 1 3 2 2 2 2 4 4 12 12
19 19 19 19 17 17 15 21 22 17 18 19 17 16 17 15 10 11 7 8 8 9 4 3 5 4 5 5 5 4 4 7 6 5 3 2 2 1 1 3 10 5 5
16 15 13 15 17 14 8 5 4 9 14 4 5 6 3 1 3 15 11 11 11 10 15 23 22 23 23 20 11 8 5 6 3 2 3 1 2 3 3 4 5 10 3
12 4 8 7 10 6 10 7 3 4 6 5 6 7 13 7 8 9 13 14 12 7 8 10 10 15 16 19 18 12 4 6 4 3 1 1 1 2 3 1 2 3 3
Wind_Direction
146 139 136 145 149 140 144 154 165 148 157 179 212 124 132 133 134 136 133 147 148 152 150 153 148 148 150 146 148 144 140 139 136 131 130 129 129 128 125 124 124 123 116
143 140 146 146 149 156 152 162 166 162 165 179 197 123 137 139 137 141 131 152 155 160 158 161 160 160 160 157 157 154 152 151 150 146 144 149 149 145 147 143 144 138 127
150 151 148 153 149 165 158 159 171 180 139 179 153 131 139 150 145 144 140 156 168 174 164 169 170 173 172 173 173 171 172 170 168 169 166 170 175 169 170 165 162 164 156
148 146 153 157 151 170 166 169 173 169 147 157 135 136 145 150 152 157 157 159 169 176 182 176 182 181 187 187 188 189 186 189 192 190 186 190 196 196 192 191 193 194 192
153 148 155 165 158 177 160 177 174 154 155 154 157 145 138 153 161 159 169 174 178 178 183 196 191 190 195 198 197 200 200 200 207 205 203 208 210 211 207 206 208 209 207
140 155 160 162 136 177 159 176 171 150 156 161 163 159 171 146 168 168 177 181 187 190 188 194 202 201 199 206 208 207 206 207 210 213 217 213 220 220 219 219 219 221 220
141 166 164 157 145 167 137 183 161 156 148 157 107 48 73 180 178 169 172 183 189 192 193 196 199 205 209 209 214 217 215 211 214 213 217 222 224 224 223 222 223 224 228
171 169 159 152 175 152 164 224 143 129 137 153 137 141 131 22 288 211 173 179 194 189 195 196 198 203 206 212 217 219 223 223 218 218 217 218 215 221 225 227 226 227 230
187 169 159 162 159 154 177 214 152 141 142 154 132 144 113 196 134 225 225 207 195 190 190 185 196 200 204 210 217 221 220 225 229 226 219 217 218 217 219 224 227 227 230
183 174 157 156 177 159 164 170 161 150 132 156 85 178 123 150 174 255 288 226 206 202 204 214 195 205 207 212 213 217 215 222 226 230 232 224 222 221 222 222 226 229 232
187 200 168 155 165 159 174 168 160 158 142 146 166 146 165 172 139 141 208 238 249 222 216 210 213 211 213 209 212 221 216 217 222 228 232 234 232 225 225 227 229 230 236
181 202 192 167 177 175 171 181 168 170 169 166 174 178 170 170 189 160 176 205 204 240 217 215 214 217 220 224 228 227 218 221 220 226 229 233 233 228 223 227 230 234 239
194 192 187 176 169 172 182 176 179 177 183 149 143 295 235 202 162 181 164 189 202 233 233 228 223 226 229 214 236 243 240 225 220 223 227 229 232 232 227 224 222 224 231
207 191 179 178 185 174 178 189 180 178 176 188 155 205 269 273 232 206 191 167 228 227 225 234 203 225 231 232 234 238 241 239 227 227 227 224 224 222 219 219 219 224 229
199 197 191 194 187 190 188 184 187 190 191 201 193 213 224 248 257 241 215 205 210 232 233 233 232 205 217 218 231 235 239 240 223 224 226 221 218 216 209 208 212 214 216
202 199 199 197 200 206 208 199 200 199 198 204 201 210 218 224 229 231 232 221 213 228 247 222 225 223 211 222 226 225 233 234 227 219 214 212 209 206 203 200 200 199 204
207 210 206 204 202 202 202 207 214 212 213 214 215 213 218 220 223 222 224 227 229 226 244 252 236 223 223 223 227 226 231 231 233 223 210 205 208 192 182 182 183 202 222
210 213 215 215 218 216 214 213 217 215 217 219 223 223 225 219 229 228 221 225 227 228 234 247 248 243 221 227 233 226 232 233 233 216 206 190 188 178 169 172 182 211 224
212 213 215 221 221 222 223 222 222 221 224 226 228 227 230 223 227 224 224 228 228 231 233 240 251 252 234 192 226 236 234 236 231 216 198 191 189 186 181 174 172 188 232
215 214 216 219 223 223 223 221 223 225 227 229 226 225 227 225 229 229 227 224 229 233 236 241 248 251 232 207 226 235 237 229 233 223 206 197 184 182 171 166 171 179 253
221 217 219 222 223 226 226 223 222 222 222 226 228 229 229 227 225 225 224 231 232 236 240 244 246 243 225 185 204 219 234 242 216 179 127 124 147 145 145 136 163 245 242
216 220 224 224 223 228 228 215 218 224 227 230 234 233 234 231 234 230 229 232 230 227 235 237 242 242 242 226 227 225 184 141 174 84 107 101 109 80 104 135 221 223 238
211 220 226 223 225 226 223 215 213 227 230 233 234 234 233 231 223 230 231 232 69 43 12 266 251 248 265 265 131 113 119 127 135 63 96 109 70 127 179 186 208 234 234
213 218 223 223 225 230 215 214 212 220 232 236 233 228 231 232 219 214 121 102 92 56 32 54 84 73 92 65 84 116 111 100 75 68 36 113 98 114 201 238 220 191 217
213 214 217 214 220 222 27 334 213 229 240 276 43 26 347 178 178 144 128 119 102 94 78 86 86 79 70 64 85 100 88 101 74 78 63 102 170 203 194 197 212 223 113
218 204 90 63 49 76 22 3 209 155 116 105 66 50 49 69 87 129 135 137 122 123 117 93 81 64 63 66 50 55 62 94 107 89 331 145 52 82 329 8 102 62 12